This demonstration page uses our WeatherBlox Daily Observations layout. Learn more.

Left ArrowRight Arrow

38.80484, -77.04692

Hourly Observations for July 15, 2018

Temp ( °F °C ) Dew Point ( °F °C ) Humidity (%) Winds ( mph kmh ) Pressure ( in mb ) Visibility ( mi km ) Precip ( " mm )
12:52 am 00:52 Clear 78 25.6 60 15.6 54 54 S 12 19 30.09 1019 10 16 0.00 0.00
1:52 am 01:52 Clear 77 25 60 15.6 56 56 S 9 15 30.08 1019 10 16 0.00 0.00
2:52 am 02:52 Clear 76 24.4 61 16.1 60 60 SSW 8 13 30.06 1018 10 16 0.00 0.00
3:52 am 03:52 Mostly Clear 75 23.9 61 16.1 62 62 SSW 8 13 30.06 1018 10 16 0.00 0.00
4:52 am 04:52 Partly Cloudy 74 23.3 63 17.2 69 69 S 10 17 30.05 1018 10 16 0.00 0.00
5:52 am 05:52 Mostly Cloudy 74 23.3 62 16.7 67 67 S 12 19 30.04 1017 10 16 0.00 0.00
6:52 am 06:52 Mostly Cloudy 74 23.3 62 16.7 67 67 S 9 15 30.04 1017 10 16 0.00 0.00
7:52 am 07:52 Mostly Cloudy 75 23.9 63 17.2 66 66 S 9 15 30.04 1017 10 16 0.00 0.00
8:52 am 08:52 Mostly Cloudy 77 25 62 16.7 60 60 SW 7 11 30.04 1017 10 16 0.00 0.00
9:52 am 09:52 Mostly Cloudy 80 26.7 63 17.2 56 56 SSW 6 9 30.02 1017 10 16 0.00 0.00
10:52 am 10:52 Cloudy 82 27.8 65 18.3 56 56 SSE 9 15 30.03 1017 10 16 0.00 0.00
11:52 am 11:52 Cloudy 83 28.3 66 18.9 57 57 S 9 15 30.03 1017 10 16 0.00 0.00
12:52 pm 12:52 Mostly Cloudy 85 29.4 66 18.9 53 53 S 8 13 30.03 1017 10 16 0.00 0.00
1:52 pm 13:52 Cloudy 85 29.4 67 19.4 55 55 S 8 13 30.02 1017 10 16 0.00 0.00
2:52 pm 14:52 Cloudy 86 30 69 20.6 57 57 S 8 13 30.02 1017 10 16 0.00 0.00
3:52 pm 15:52 Cloudy 88 31.1 70 21.1 55 55 SSW 10 17 30.00 1016 10 16 0.00 0.00
4:52 pm 16:52 Cloudy 86 30 69 20.6 57 57 S 10 17 29.98 1015 10 16 0.00 0.03
5:52 pm 17:52 Cloudy 85 29.4 70 21.1 61 61 S 9 15 29.98 1015 10 16 0.00 0.00
6:52 pm 18:52 Cloudy 85 29.4 69 20.6 59 59 WSW 6 9 29.99 1016 10 16 0.00 0.00
7:52 pm 19:52 Cloudy 84 28.9 68 20 59 59 SW 5 7 29.99 1016 10 16 0.00 0.03
8:52 pm 20:52 Cloudy 84 28.9 69 20.6 61 61 W 7 11 29.99 1016 10 16 0.00 0.00
9:52 pm 21:52 Cloudy 82 27.8 71 21.7 69 69 W 5 7 30.00 1016 10 16 0.00 0.00
10:52 pm 22:52 Mostly Cloudy 81 27.2 71 21.7 72 72 W 6 9 30.01 1016 10 16 0.00 0.00
11:52 pm 23:52 Partly Cloudy 80 26.7 71 21.7 74 74 SSW 3 6 30.01 1016 10 16 0.00 0.00

Powered by AerisWeather